Regional Weather Roundup
Issued by NWS

Home | Current Version | Previous Version | Graphics & Text | Print | Product List | Glossary On
Versions: 1 2 3 4 5 6 7 8 9 10 11 12 13 14 15 16 17 18 19 20 21 22 23 24 25 26 27 28 29 30 31 32 33 34 35 36 37 38 39 40 41 42 43 44 45 46 47 48 49 50
000
ASUS45 KSLC 031310
RWRUT

UTAH REGIONAL WEATHER ROUNDUP
NATIONAL WEATHER SERVICE SALT LAKE CITY UT
700 AM MDT THU SEP 03 2015

UTZ001>011-023>025-031400-

NORTHERN UTAH

CITY           SKY/WX    TMP DP  RH WIND       PRES   REMARKS
BRIGHAM CITY   MOCLDY    77  33  20 S17       29.88S
HILL AFB       PTCLDY    74  39  28 S16       29.93R
LOGAN          CLEAR     75  37  25 S14       29.88S
OGDEN          PTCLDY    76  39  26 S18G26    29.90R
PROVO AIRPORT  MOCLDY    63  43  48 SE5       29.98S
SALT LAKE CITY MOCLDY    75  41  29 S15       29.90R
VERNAL         MOCLDY    58  43  57 W6        30.04R
WENDOVER       MOCLDY    73  34  23 S18       29.86S
HEBER CITY     CLOUDY    68  36  30 SW15      30.03S
WEST JORDAN    CLEAR     70  43  37 S13       29.96R

$$

UTZ012>022-026-027-031400-

SOUTHERN/CENTRAL UTAH

CITY           SKY/WX    TMP DP  RH WIND       PRES   REMARKS
BLANDING       PTCLDY    58  50  74 N8        30.23S
BRYCE CANYON   MOCLDY    49  38  65 CALM      30.24R
CEDAR CITY     CLOUDY    63  38  39 S8        30.07S
DELTA          CLOUDY    67  36  32 S17       29.99S
HANKSVILLE     MOCLDY    70  46  43 S3        30.03S
MILFORD        CLOUDY    63  38  39 SW8       30.02R
MOAB/CYNLANDS  MOCLDY    72  50  45 S3        30.01R
PRICE          MOCLDY    61  40  45 NE9       30.08R
ST GEORGE      CLOUDY    73  41  31 E9        29.94R

$$

REGIONAL REPORTS     COLORADO/ARIZONA

CITY           SKY/WX    TMP DP  RH WIND       PRES   REMARKS
CRAIG, CO      MOCLDY    49  45  86 CALM      30.13R
GRAND JUNCTION CLOUDY    67  50  54 SE10      30.05R
RIFLE          MOCLDY    57  51  80 CALM      30.12R
MONTROSE       TSTM      61  55  81 S17       30.17R
CORTEZ         MOCLDY    59  56  89 NE6       30.17F
PAGE, AZ       CLOUDY    69  50  50 SE6       30.04S
GRAND CANYON   MOCLDY    49  46  90 CALM      30.21R
KINGMAN        MOCLDY    67  43  41 SE8       29.97S
FLAGSTAFF      PTCLDY    46  41  82 CALM      30.25R

$$

REGIONAL REPORTS    NEVADA/IDAHO/WYOMING

CITY           SKY/WX    TMP DP  RH WIND       PRES   REMARKS
LAS VEGAS, NV  MOCLDY    79  37  22 S7        29.81R
ELY            CLEAR     57  35  43 S16       30.03S
ELKO           PTCLDY    51  31  46 CALM      29.93F
POCATELLO, ID  CLEAR     61  38  42 SW13      29.90R
BURLEY         MOCLDY    59  38  45 W14       29.89R
EVANSTON, WY   MOCLDY    60  35  39 SW10      30.11S
ROCK SPRINGS   MOCLDY    59  39  47 SE5       30.10R
KEMMERER       MOCLDY    55  32  41 S3        30.12R

$$


USA.gov is the U.S. government's official web portal to all federal, state and local government web resources and services.